Weather History for Palma de Mallorca, Spain

Change the Weather History Date:

Monday, July 8, 2013

  Actual Average Record
Temperature  
Mean Temperature 77 °F -  
Max Temperature 89 °F 85 °F 91 °F (2003)
Min Temperature 65 °F 65 °F 57 °F (1997)
Cooling Degree Days 12    
Growing Degree Days 27 (Base 50)    
Moisture  
Dew Point 64 °F    
Average Humidity 63    
Maximum Humidity 88    
Minimum Humidity 36    
Precipitation  
Precipitation 0.00 in 0.02 in - ()
Sea Level Pressure  
Sea Level Pressure 30.11 in    
Wind  
Wind Speed 5 mph ()    
Max Wind Speed 15 mph    
Max Gust Speed -    
Visibility 7.5 miles    
Events      
Averages and records for this station are not official NWS values.
T = Trace of Precipitation, MM = Missing Value Source: Averaged Metar Reports

Daily Weather History Graph

Daily Weather History Graph

Search for Another Location

Airport:

Trip Planner

Search our weather history database for the weather conditions in past years. The results will help you decide how hot, cold, wet, or windy it might be!

Date:

Astronomy

Jul. 08, 2013 Rise Set
Actual Time 6:29 AM CEST 9:18 PM CEST
Civil Twilight 5:57 AM CEST 9:50 PM CEST
Nautical Twilight 5:16 AM CEST 10:30 PM CEST
Astronomical Twilight 4:30 AM CEST 11:16 PM CEST
Moon 6:44 AM CEST (7/8) 9:12 PM CEST (7/8)
Length of Visible Light 15h 53m
Length of Day
14h 49m
New Moon, 0% of the Moon is Illuminated
Jul 8
New Moon
Jul 16
First Quarter
Jul 22
Full
Jul 29
Last Quarter
Aug 6
New

Hourly Weather History & Observations

Time (CEST) Temp. Heat Index Dew Point Humidity Pressure Visibility Wind Dir Wind Speed Gust Speed Precip Events Conditions
12:00 AM 75.2 °F - 64.4 °F 69% 30.15 in - Variable 1.2 mph - N/A   Clear
12:30 AM 77.0 °F - 64.4 °F 65% 30.15 in - Variable 2.3 mph - N/A   Clear
1:00 AM 73.4 °F - 64.4 °F 73% 30.12 in - ENE 3.5 mph - N/A   Clear
1:30 AM 71.6 °F - 62.6 °F 73% 30.12 in - ENE 2.3 mph - N/A   Clear
2:00 AM 70 °F - 62 °F 69% 30.14 in 12 mi NE 1.2 mph - -  
2:00 AM 71.6 °F - 62.6 °F 73% 30.12 in - NNE 1.2 mph - N/A   Clear
2:30 AM 69.8 °F - 62.6 °F 78% 30.12 in - Variable 2.3 mph - N/A   Clear
3:00 AM 69.8 °F - 62.6 °F 78% 30.12 in - ENE 4.6 mph - N/A   Clear
3:30 AM 69.8 °F - 62.6 °F 78% 30.12 in - Calm Calm - N/A   Clear
4:00 AM 68.0 °F - 62.6 °F 83% 30.12 in - Calm Calm - N/A   Clear
4:30 AM 68.0 °F - 60.8 °F 78% 30.12 in - Variable 2.3 mph - N/A   Clear
5:00 AM 68.0 °F - 62.6 °F 83% 30.12 in - Variable 2.3 mph - N/A   Clear
5:30 AM 68.0 °F - 64.4 °F 88% 30.12 in - NNE 5.8 mph - N/A   Clear
6:00 AM 66.2 °F - 60.8 °F 83% 30.12 in 6.2 mi Variable 2.3 mph - N/A   Partly Cloudy
6:30 AM 68.0 °F - 60.8 °F 78% 30.12 in 6.2 mi North 3.5 mph - N/A   Partly Cloudy
7:00 AM 68.0 °F - 62.6 °F 83% 30.12 in 6.2 mi NE 8.1 mph - N/A   Partly Cloudy
7:30 AM 69.8 °F - 64.4 °F 83% 30.12 in 5.6 mi NNW 3.5 mph - N/A   Partly Cloudy
8:00 AM 73 °F - 65 °F 70% 30.13 in 16 mi NNE 2.3 mph - -  
8:00 AM 73.4 °F - 66.2 °F 78% 30.12 in - NNE 3.5 mph - N/A   Clear
8:30 AM 77.0 °F - 68.0 °F 74% 30.12 in - ENE 6.9 mph - N/A   Clear
9:00 AM 78.8 °F - 66.2 °F 65% 30.12 in - NE 4.6 mph - N/A   Clear
9:30 AM 82.4 °F 83.9 °F 64.4 °F 54% 30.12 in - NE 8.1 mph - N/A   Clear
10:00 AM 84.2 °F 85.0 °F 62.6 °F 48% 30.12 in - NE 6.9 mph - N/A   Clear
10:30 AM 86.0 °F 86.1 °F 60.8 °F 43% 30.12 in - ENE 8.1 mph - N/A   Clear
11:00 AM 89.6 °F 88.9 °F 59.0 °F 36% 30.12 in - ENE 9.2 mph - N/A   Clear
11:30 AM 84.2 °F 86.6 °F 66.2 °F 55% 30.12 in 6.2 mi ENE 10.4 mph - N/A   Partly Cloudy
12:00 PM 86.0 °F 88.2 °F 66.2 °F 51% 30.12 in 6.2 mi ENE 11.5 mph - N/A   Partly Cloudy
12:30 PM 84.2 °F 86.6 °F 66.2 °F 55% 30.12 in - WSW 5.8 mph - N/A   Clear
1:00 PM 86.0 °F 89.4 °F 68.0 °F 55% 30.12 in 6.2 mi SW 12.7 mph - N/A   Partly Cloudy
1:30 PM 86.0 °F 89.4 °F 68.0 °F 55% 30.12 in 6.2 mi SW 12.7 mph - N/A   Partly Cloudy
2:00 PM 85 °F - 68 °F 48% 30.13 in 19 mi SW 10.4 mph - -   Scattered Clouds
2:00 PM 84.2 °F 88.4 °F 69.8 °F 62% 30.12 in 6.2 mi SW 10.4 mph - N/A   Partly Cloudy
2:30 PM 86.0 °F 89.4 °F 68.0 °F 55% 30.12 in 6.2 mi SW 15.0 mph - N/A   Partly Cloudy
3:00 PM 84.2 °F 87.3 °F 68.0 °F 58% 30.12 in 6.2 mi SW 15.0 mph - N/A   Partly Cloudy
3:30 PM 84.2 °F 87.3 °F 68.0 °F 58% 30.12 in 6.2 mi SSW 12.7 mph - N/A   Partly Cloudy
4:00 PM 84.2 °F 86.6 °F 66.2 °F 55% 30.12 in 6.2 mi SW 11.5 mph - N/A   Partly Cloudy
4:30 PM 84.2 °F 88.4 °F 69.8 °F 62% 30.09 in 6.2 mi SW 12.7 mph - N/A   Partly Cloudy
5:00 PM 84.2 °F 85.0 °F 62.6 °F 48% 30.09 in 6.2 mi SW 10.4 mph - N/A   Partly Cloudy
5:30 PM 86.0 °F 87.3 °F 64.4 °F 48% 30.09 in 6.2 mi SW 10.4 mph - N/A   Partly Cloudy
6:00 PM 86.0 °F 86.6 °F 62.6 °F 45% 30.09 in 6.2 mi SW 8.1 mph - N/A   Partly Cloudy
6:30 PM 84.2 °F 85.6 °F 64.4 °F 51% 30.09 in 6.2 mi SW 9.2 mph - N/A   Partly Cloudy
7:00 PM 84.2 °F 85.6 °F 64.4 °F 51% 30.09 in - SW 9.2 mph - N/A   Clear
7:30 PM 82.4 °F 84.6 °F 66.2 °F 58% 30.09 in - SW 8.1 mph - N/A   Clear
8:00 PM 82.4 °F 84.6 °F 66.2 °F 58% 30.09 in - WSW 4.6 mph - N/A   Clear
8:30 PM 80.6 °F 83.2 °F 68.0 °F 65% 30.09 in - Variable 2.3 mph - N/A   Clear
9:00 PM 80.6 °F 82.7 °F 66.2 °F 61% 30.09 in - SW 1.2 mph - N/A   Clear
9:30 PM 78.8 °F - 66.2 °F 65% 30.09 in - Calm Calm - N/A   Clear
10:00 PM 80.6 °F 81.1 °F 59.0 °F 48% 30.09 in - East 2.3 mph - N/A   Clear
10:30 PM 78.8 °F - 60.8 °F 54% 30.09 in - ENE 4.6 mph - N/A   Clear
11:00 PM 77.0 °F - 60.8 °F 57% 30.12 in - ENE 5.8 mph - N/A   Clear
11:30 PM 75.2 °F - 60.8 °F 61% 30.12 in - East 6.9 mph - N/A   Clear